TimeCDT,TemperatureF,Dew PointF,Humidity,Sea Level PressureIn,VisibilityMPH,Wind Direction,Wind SpeedMPH,Gust SpeedMPH,PrecipitationIn,Events,Conditions,WindDirDegrees,DateUTC
12:15 AM,53.6,42.8,67,30.13,10.0,NNE,15.0,18.4,N/A,,Clear,30,2012-10-26 05:15:00
12:35 AM,51.8,42.8,71,30.13,10.0,NNE,12.7,-,N/A,,Clear,30,2012-10-26 05:35:00
1:15 AM,51.8,42.8,71,30.13,10.0,NE,11.5,18.4,N/A,,Clear,40,2012-10-26 06:15:00
1:35 AM,48.2,42.8,82,30.13,10.0,NNE,8.1,-,N/A,,Clear,20,2012-10-26 06:35:00
1:55 AM,48.2,42.8,82,30.14,10.0,Calm,Calm,-,N/A,,Clear,0,2012-10-26 06:55:00
2:15 AM,48.2,42.8,82,30.14,10.0,NNE,9.2,-,N/A,,Clear,30,2012-10-26 07:15:00
2:35 AM,48.2,42.8,82,30.14,10.0,NNE,12.7,-,N/A,,Clear,30,2012-10-26 07:35:00
2:55 AM,48.2,41.0,76,30.14,10.0,NNE,12.7,17.3,N/A,,Clear,30,2012-10-26 07:55:00
3:15 AM,48.2,39.2,71,30.14,10.0,NNE,15.0,-,N/A,,Clear,20,2012-10-26 08:15:00
3:35 AM,46.4,39.2,76,30.15,10.0,NNE,11.5,-,N/A,,Clear,20,2012-10-26 08:35:00
3:55 AM,46.4,37.4,71,30.14,10.0,NNE,10.4,-,N/A,,Clear,30,2012-10-26 08:55:00
4:15 AM,46.4,37.4,71,30.14,10.0,NNE,9.2,-,N/A,,Clear,30,2012-10-26 09:15:00
4:35 AM,44.6,37.4,76,30.15,10.0,NNE,6.9,-,N/A,,Clear,30,2012-10-26 09:35:00
4:55 AM,44.6,35.6,71,30.14,10.0,NNE,9.2,-,N/A,,Clear,20,2012-10-26 09:55:00
5:15 AM,44.6,35.6,71,30.15,10.0,NNE,10.4,-,N/A,,Clear,30,2012-10-26 10:15:00
5:35 AM,44.6,33.8,66,30.15,10.0,NE,16.1,-,N/A,,Clear,40,2012-10-26 10:35:00
5:55 AM,42.8,33.8,70,30.16,10.0,NNE,15.0,21.9,N/A,,Clear,30,2012-10-26 10:55:00
6:15 AM,42.8,33.8,70,30.17,10.0,NNE,17.3,-,N/A,,Clear,30,2012-10-26 11:15:00
6:35 AM,41.0,33.8,76,30.18,10.0,NNE,15.0,20.7,N/A,,Clear,30,2012-10-26 11:35:00
6:55 AM,41.0,33.8,76,30.19,10.0,NNE,13.8,17.3,N/A,,Clear,30,2012-10-26 11:55:00
7:15 AM,41.0,33.8,76,30.19,10.0,NNE,9.2,-,N/A,,Clear,30,2012-10-26 12:15:00
8:35 AM,39.2,33.8,81,30.22,10.0,NNE,12.7,-,N/A,,Clear,30,2012-10-26 13:35:00
8:55 AM,41.0,33.8,76,30.22,10.0,NE,12.7,-,N/A,,Clear,40,2012-10-26 13:55:00
9:15 AM,42.8,33.8,70,30.23,10.0,NE,15.0,-,N/A,,Clear,40,2012-10-26 14:15:00
9:35 AM,42.8,33.8,70,30.24,10.0,NE,17.3,-,N/A,,Clear,50,2012-10-26 14:35:00
10:15 AM,44.6,33.8,66,30.26,10.0,NE,16.1,19.6,N/A,,Scattered Clouds,40,2012-10-26 15:15:00
10:35 AM,44.6,33.8,66,30.26,10.0,NNE,13.8,-,N/A,,Overcast,30,2012-10-26 15:35:00
10:55 AM,44.6,33.8,66,30.27,10.0,North,18.4,-,N/A,,Overcast,10,2012-10-26 15:55:00
11:15 AM,44.6,33.8,66,30.28,10.0,NNE,15.0,-,N/A,,Overcast,30,2012-10-26 16:15:00
11:35 AM,44.6,33.8,66,30.28,10.0,NNE,20.7,24.2,N/A,,Overcast,20,2012-10-26 16:35:00
11:55 AM,44.6,33.8,66,30.29,10.0,NNE,20.7,25.3,N/A,,Overcast,30,2012-10-26 16:55:00
12:15 PM,44.6,33.8,66,30.29,10.0,NNE,19.6,-,N/A,,Overcast,30,2012-10-26 17:15:00
12:35 PM,44.6,33.8,66,30.29,10.0,NNE,21.9,26.5,N/A,,Overcast,30,2012-10-26 17:35:00
12:55 PM,42.8,33.8,70,30.29,10.0,NNE,18.4,-,N/A,,Overcast,30,2012-10-26 17:55:00
1:15 PM,42.8,32.0,66,30.28,10.0,NNE,23.0,-,N/A,,Overcast,30,2012-10-26 18:15:00
1:35 PM,44.6,32.0,61,30.28,10.0,NNE,21.9,27.6,N/A,,Overcast,30,2012-10-26 18:35:00
1:55 PM,44.6,30.2,57,30.27,10.0,NNE,21.9,26.5,N/A,,Overcast,30,2012-10-26 18:55:00
2:15 PM,46.4,32.0,57,30.26,10.0,NNE,20.7,26.5,N/A,,Overcast,20,2012-10-26 19:15:00
2:35 PM,46.4,32.0,57,30.25,10.0,NNE,19.6,27.6,N/A,,Overcast,20,2012-10-26 19:35:00
2:55 PM,46.4,30.2,53,30.25,10.0,NNE,20.7,26.5,N/A,,Overcast,20,2012-10-26 19:55:00
3:15 PM,46.4,30.2,53,30.25,10.0,NNE,19.6,-,N/A,,Overcast,30,2012-10-26 20:15:00
3:35 PM,48.2,30.2,50,30.24,10.0,NNE,20.7,25.3,N/A,,Overcast,30,2012-10-26 20:35:00
3:55 PM,46.4,30.2,53,30.24,10.0,NNE,18.4,26.5,N/A,,Overcast,30,2012-10-26 20:55:00
4:15 PM,48.2,30.2,50,30.23,10.0,NNE,16.1,25.3,N/A,,Overcast,30,2012-10-26 21:15:00
4:35 PM,48.2,30.2,50,30.23,10.0,NE,16.1,21.9,N/A,,Overcast,50,2012-10-26 21:35:00
4:55 PM,48.2,30.2,50,30.23,10.0,NE,18.4,-,N/A,,Overcast,40,2012-10-26 21:55:00
5:15 PM,48.2,30.2,50,30.23,10.0,NE,19.6,24.2,N/A,,Overcast,40,2012-10-26 22:15:00
5:35 PM,48.2,30.2,50,30.23,10.0,NE,17.3,23.0,N/A,,Overcast,40,2012-10-26 22:35:00
5:55 PM,46.4,30.2,53,30.23,10.0,NNE,13.8,24.2,N/A,,Overcast,30,2012-10-26 22:55:00
6:15 PM,46.4,30.2,53,30.24,10.0,NNE,19.6,24.2,N/A,,Overcast,20,2012-10-26 23:15:00
6:35 PM,46.4,30.2,53,30.24,10.0,NNE,17.3,-,N/A,,Overcast,30,2012-10-26 23:35:00
6:55 PM,46.4,30.2,53,30.24,10.0,NNE,12.7,-,N/A,,Overcast,30,2012-10-26 23:55:00
7:15 PM,46.4,28.4,50,30.25,10.0,NNE,15.0,-,N/A,,Overcast,30,2012-10-27 00:15:00
7:35 PM,44.6,30.2,57,30.26,10.0,NNE,15.0,-,N/A,,Overcast,30,2012-10-27 00:35:00
7:55 PM,44.6,28.4,53,30.27,10.0,NNE,13.8,21.9,N/A,,Overcast,30,2012-10-27 00:55:00
8:15 PM,44.6,30.2,57,30.28,10.0,NE,15.0,20.7,N/A,,Overcast,40,2012-10-27 01:15:00
8:35 PM,44.6,28.4,53,30.28,10.0,NE,16.1,-,N/A,,Overcast,40,2012-10-27 01:35:00
8:55 PM,44.6,28.4,53,30.28,10.0,NE,17.3,24.2,N/A,,Overcast,40,2012-10-27 01:55:00
9:15 PM,44.6,28.4,53,30.29,10.0,NE,15.0,23.0,N/A,,Overcast,40,2012-10-27 02:15:00
9:35 PM,44.6,28.4,53,30.29,10.0,NNE,18.4,23.0,N/A,,Overcast,30,2012-10-27 02:35:00
9:55 PM,46.4,28.4,50,30.30,10.0,NE,15.0,20.7,N/A,,Overcast,40,2012-10-27 02:55:00
10:15 PM,46.4,28.4,50,30.30,10.0,NE,11.5,-,N/A,,Overcast,40,2012-10-27 03:15:00
10:35 PM,46.4,28.4,50,30.30,10.0,NE,15.0,18.4,N/A,,Overcast,40,2012-10-27 03:35:00
10:55 PM,46.4,28.4,50,30.30,10.0,NE,12.7,18.4,N/A,,Overcast,50,2012-10-27 03:55:00
11:15 PM,44.6,28.4,53,30.30,10.0,NE,12.7,-,N/A,,Overcast,40,2012-10-27 04:15:00
11:35 PM,44.6,28.4,53,30.30,10.0,NE,13.8,23.0,N/A,,Overcast,40,2012-10-27 04:35:00
11:55 PM,44.6,28.4,53,30.29,10.0,NE,13.8,20.7,N/A,,Overcast,40,2012-10-27 04:55:00